This is the latest recevied weather packets stored in our database for station/object JA0BES-13. If no packets are shown the sender has not sent any weather packets the latest 10 day(s).
| Time | Temp. | Humidity | Pressure | Rain* | Wind** | Luminosity | Snow |
|---|---|---|---|---|---|---|---|
| 1777192034 | 20.56° C | 55% | 1011.4 hPa | 0 mm | - | - | - |
| 1777191434 | 20.56° C | 53% | 1011.7 hPa | 0 mm | - | - | - |
| 1777190834 | 21.11° C | 51% | 1011.8 hPa | 0 mm | - | - | - |
| 1777190233 | 21.11° C | 49% | 1011.3 hPa | 0 mm | - | - | - |
| 1777189633 | 21.67° C | 48% | 1011.1 hPa | 0 mm | - | - | - |
| 1777189032 | 22.22° C | 46% | 1011.1 hPa | 0 mm | - | - | - |
| 1777188432 | 22.22° C | 45% | 1011.1 hPa | 0 mm | - | - | - |
| 1777187831 | 22.22° C | 44% | 1010.8 hPa | 0 mm | - | - | - |
| 1777187231 | 22.78° C | 42% | 1010.6 hPa | 0 mm | - | - | - |
| 1777186631 | 23.33° C | 41% | 1010.7 hPa | 0 mm | - | - | - |
| 1777186031 | 23.89° C | 40% | 1010.9 hPa | 0 mm | - | - | - |
| 1777185430 | 24.44° C | 40% | 1010.8 hPa | 0 mm | - | - | - |
| 1777184830 | 24.44° C | 40% | 1010.9 hPa | 0 mm | - | - | - |
| 1777184229 | 24.44° C | 39% | 1011 hPa | 0 mm | - | - | - |
| 1777183629 | 24.44° C | 39% | 1010.9 hPa | 0 mm | - | - | - |
| 1777183029 | 24.44° C | 39% | 1010.8 hPa | 0 mm | - | - | - |
| 1777182429 | 24.44° C | 39% | 1010.9 hPa | 0 mm | - | - | - |
| 1777181828 | 24.44° C | 40% | 1011 hPa | 0 mm | - | - | - |
| 1777181228 | 24.44° C | 40% | 1011.2 hPa | 0 mm | - | - | - |
| 1777180627 | 24.44° C | 38% | 1011.4 hPa | 0 mm | - | - | - |
| 1777180027 | 24.44° C | 39% | 1011.5 hPa | 0 mm | - | - | - |
| 1777179427 | 24.44° C | 39% | 1011.7 hPa | 0 mm | - | - | - |
| 1777178826 | 23.89° C | 40% | 1012 hPa | 0 mm | - | - | - |
| 1777178226 | 23.33° C | 40% | 1012.3 hPa | 0 mm | - | - | - |
| 1777177626 | 23.33° C | 40% | 1012.2 hPa | 0 mm | - | - | - |
* Rain since midnight (hover to see other rain measurements)
** Current wind speed in m/s (hover to see current wind gust speed)